Location: Acton
(51.4942°N, 0.2232°W)
Time: 17:23:46
(UTC+00:00)

SJ-6B - Pass Details

Date: 18 September 2020
Orbit: 511 x 580 km, 97.6° (Epoch: 31 October)

Event Time Altitude Azimuth Distance (km) Brightness Sun altitude
Exits shadow 19:22:22 11° 151° (SSE) 1,648 4.8 -12.3°
Maximum altitude 19:25:50 58° 72° (ENE) 604 2.7 -12.8°
Drops below altitude 10° 19:29:33 10° 353° (N) 1,760 5.7 -13.3°
Sets 19:31:41 0° 350° (N) 2,660 6.8 -13.6°
